www.pogodaiklimat.ru

Погода и климат >> Архив погоды >> Индия >> Naliya


ПОГОДА в Naliya

  • Прогноз погоды в Naliya
  • Монитор погоды в Naliya
  • Климат города

АРХИВ ПОГОДЫ в Naliya

Время (UTC), дата Ветер
(напр.,м/с)
 
Видим.   Явления Облачность Т
(С)
Тd
(С)
f
(%)
Тe
(С)
Тes
(С)
Комфортность P
(гПа)
Po
(гПа)
Тmin
(С)
Tmax
(С)
R
(мм)
R24
(мм)
S
(см)
09 14.10 ЮЗ 2 10 км ясно +37.2 +15.6 28 +61 +75 опасность
перегрева
1004.4 1004.0
12 14.10 З 2 10 км ясно +32.8 +18.7 43 +38 +39 очень
душно
1004.1 1004.0 +39.0
15 14.10 штиль 0 4000 м ясно +26.4 +21.9 76 +34 +34 очень
душно
1005.9 1006.0
18 14.10 штиль 0 4000 м ясно +23.4 +20.6 84 +31 +31 очень
душно
1006.3 1006.0
21 14.10 штиль 0 4000 м ясно +21.6 +19.7 89 +27 +27 душно 1005.9 1006.0
00 15.10 штиль 0 4000 м ясно +21.0 +19.8 93 +26 +26 душно 1006.7 1007.0
03 15.10 штиль 0 10 км ясно +24.0 +22.5 91 +31 +34 очень
душно
1008.3 1008.0 +19.6
06 15.10 штиль 0 10 км ясно +34.0 +18.0 39 +38 +56 опасность
солнечного
удара
1008.5 1009.0
09 15.10 З 2 10 км ясно +35.0 +16.9 34 +38 +51 опасность
солнечного
удара
1006.4 1006.0
12 15.10 штиль 0 10 км ясно +33.4 +19.1 43 +39 +41 очень
душно
1005.5 1006.0 +36.0
15 15.10 штиль 0 4000 м ясно +26.4 +21.9 76 +34 +34 очень
душно
1006.8 1007.0
18 15.10 штиль 0 4000 м ясно +25.2 +23.4 90 +34 +34 очень
душно
1007.6 1008.0
21 15.10 штиль 0 <50 м туман ясно +22.4 +21.8 96 +30 +30 очень
душно
1007.3 1007.0
00 16.10 штиль 0 <50 м туман ясно +23.4 +23.1 98 +33 +33 очень
душно
1007.2 1007.0
03 16.10 штиль 0 4000 м ясно +26.0 +24.9 94 +37 +40 очень
душно
1009.0 1009.0 +21.8
06 16.10 штиль 0 10 км ясно +33.0 +22.5 54 +42 +60 опасность
перегрева
1009.1 1009.0
09 16.10 З 2 10 км ясно +35.0 +20.8 44 +42 +56 опасность
перегрева
1006.7 1007.0
12 16.10 штиль 0 10 км ясно +32.0 +24.9 66 +45 +47 опасность
перегрева
1006.2 1006.0 +35.4
15 16.10 штиль 0 4000 м ясно +26.8 +24.2 86 +37 +37 очень
душно
1007.3 1007.0
18 16.10 штиль 0 4000 м ясно +24.8 +23.3 91 +33 +33 очень
душно
1008.2 1008.0
21 16.10 штиль 0 4000 м туман ясно +23.4 +21.9 91 +32 +32 очень
душно
1007.6 1008.0
00 17.10 штиль 0 50 м туман ясно +21.8 +21.2 96 +28 +28 душно 1007.9 1008.0
03 17.10 штиль 0 4000 м ясно +26.0 +24.6 92 +37 +39 очень
душно
1009.9 1010.0 +21.2
06 17.10 штиль 0 10 км ясно +31.8 +23.4 61 +43 +60 опасность
перегрева
1010.3 1010.0
09 17.10 штиль 0 10 км ясно +36.8 +16.1 29 +39 +55 опасность
солнечного
удара
1007.4 1007.0
12 17.10 штиль 0 10 км ясно +33.6 +20.8 47 +41 +42 опасность
перегрева
1007.1 1007.0 +37.2
15 17.10 штиль 0 4000 м ясно +26.6 +22.5 78 +35 +35 очень
душно
1008.2 1008.0
18 17.10 штиль 0 4000 м ясно +25.0 +23.2 90 +33 +33 очень
душно
1009.0 1009.0
21 17.10 штиль 0 500 м туман ясно +24.6 +23.1 91 +33 +33 очень
душно
1008.4 1008.0
00 18.10 штиль 0 <50 м туман ясно +24.2 +23.6 96 +33 +33 очень
душно
1008.5 1009.0
03 18.10 штиль 0 50 м туман ясно +24.8 +24.2 96 +34 +37 очень
душно
1010.5 1011.0 +23.0
06 18.10 штиль 0 4000 м ясно +31.0 +24.7 69 +44 +61 опасность
перегрева
1011.1 1011.0
09 18.10 З 2 10 км ясно +35.6 +16.9 33 +38 +52 опасность
солнечного
удара
1008.3 1008.0
12 18.10 штиль 0 10 км ясно +33.4 +22.0 51 +42 +44 опасность
перегрева
1007.6 1008.0 +36.0
15 18.10 штиль 0 4000 м ясно +27.2 +22.5 76 +36 +36 очень
душно
1008.9 1009.0
18 18.10 штиль 0 4000 м ясно +23.8 +21.7 88 +30 +30 очень
душно
1009.4 1009.0
21 18.10 штиль 0 4000 м ясно +24.2 +23.0 93 +32 +32 очень
душно
1008.5 1009.0
00 19.10 штиль 0 <50 м туман ясно +22.4 +21.8 96 +30 +30 очень
душно
1008.0 1008.0
03 19.10 штиль 0 200 м туман 1/0
[]
+24.6 +22.6 89 +27 +29 жарко 1010.2 1010.0 +21.4
06 19.10 штиль 0 10 км {туман} ясно +33.2 +22.2 53 +42 +59 опасность
перегрева
1010.4 1010.0
09 19.10 З 3 10 км ясно +37.8 +17.6 31 +41 +51 опасность
перегрева
1007.3 1007.0
12 19.10 З 3 10 км ясно +34.0 +20.3 45 +41 +42 опасность
перегрева
1006.8 1007.0 +38.0
15 19.10 штиль 0 4000 м ясно +27.4 +22.4 74 +36 +36 очень
душно
1008.0 1008.0
18 19.10 штиль 0 4000 м ясно +25.4 +22.1 82 +33 +33 очень
душно
1008.8 1009.0
21 19.10 штиль 0 4000 м ясно +22.8 +20.0 84 +29 +29 очень
душно
1008.1 1008.0
00 20.10 штиль 0 500 м туман ясно +21.4 +19.8 91 +26 +26 душно 1007.7 1008.0
03 20.10 штиль 0 10 км {туман} ясно +24.6 +21.9 85 +32 +34 очень
душно
1009.4 1009.0 +19.6
06 20.10 штиль 0 10 км ясно +33.6 +18.6 41 +38 +55 опасность
солнечного
удара
1009.8 1010.0
09 20.10 З 2 10 км ясно +36.4 +20.0 38 +42 +54 опасность
перегрева
1007.5 1008.0
12 20.10 З 2 10 км ясно +33.8 +21.4 48 +41 +43 опасность
перегрева
1007.3 1007.0 +37.0
15 20.10 штиль 0 4000 м ясно +27.8 +22.8 74 +37 +37 очень
душно
1008.4 1008.0
18 20.10 штиль 0 4000 м ясно +24.6 +21.6 83 +31 +31 очень
душно
1008.8 1009.0
21 20.10 штиль 0 4000 м ясно +21.8 +19.3 86 +27 +27 душно 1008.1 1008.0
00 21.10 штиль 0 4000 м ясно +20.6 +18.4 87 +24 +24 комфорт 1008.5 1009.0
03 21.10 штиль 0 10 км ясно +24.0 +21.0 83 +30 +32 очень
душно
1010.3 1010.0 +19.0
06 21.10 З 3 10 км ясно +32.6 +29.2 82 +56 +68 опасность
перегрева
1010.0 1010.0

 

Местоположение метеостанции Naliya (Gujarat, Индия): широта 23.25 долгота 68.85 высота над уровнем моря 21 м.

В архиве по умолчанию представлена погода в Naliya за последнюю неделю. Архивные данные за месяц целиком и за предыдущие месяцы, начиная с января 2011 года, Вы можете получить, выбрав интересующий диапазон дат из раскрывающегося списка и нажав кнопку "Ввод!".

Внимание! Время в таблицах - всемирное. Для получения местного времени необходимо прибавить поправку, которая в Naliya равна 5.5 ч.

Смотрите также архив погоды в соседних городах и на ближайших метеорологических станциях:

Погода в Mandvi (Gujarat, Индия) (64 км)
Погода в Bhuj-Rudramata (Gujarat, Индия) (84 км)
Погода в Okha (Gujarat, Индия) (90 км)
Погода в Dwarka (Gujarat, Индия) (101 км)
Погода в Kandla (Gujarat, Индия) (129 км)
Погода в New Kandla (Gujarat, Индия) (143 км)
Погода в Badin (Пакистан) (154 км)
Погода в Porbandar (Gujarat, Индия) (197 км)
Погода в Rajkot (Gujarat, Индия) (224 км)
Погода в Hyderabad Airport (Пакистан) (241 км)

Пояснения к столбцам:

Ветер - указаны скорость ветра в м/с - средняя за 10 мин, порывы в срок и между сроками (в фигурных скобках) и направление, откуда дует ветер: С - северный, СВ - северо-восточный, В - восточный, ЮВ - юго-восточный, Ю - южный, ЮЗ - юго-западный, З - западный, СЗ - северо-западный.
Видимость - горизонтальная дальность видимости в метрах или километрах. При видимости от 1 до 10 км при отсутствии осадков обычно наблюдается дымка, при ухудшении видимости до 1 км и менее - туман. В сухую погоду видимость может ухудшаться дымом, пылью или мглою.
Явления - указаны атмосферные явления, наблюдавшиеся в срок или в последний час перед сроком; фигурными скобками обозначены явления, наблюдавшиеся между сроками (за 1-3 часа до срока); квадратными скобками обозначены град или гололедные отложения с указанием их диаметра в мм.
Облачность - указаны через наклонную черту общая и нижняя облачность в баллах и высота нижней границы облаков в метрах; квадратными скобками обозначены формы облаков: Ci - перистые, Cs - перисто-слоистые, Cc - перисто-кучевые, Ac - высококучевые, As - высокослоистые, Sc - слоисто-кучевые, Ns - слоисто-дождевые, Cu - кучевые, Cb - кучево-дождевые. Подробнее классификацию облаков см. в Атласе облаков (PDF).
T - Температура воздуха - температура, измеренная на высоте 2 м над землей.
Td - Температура точки росы - температура, при понижении до которой содержащийся в воздухе водяной пар достигнет насыщения.
f - Относительная влажность воздуха - влажноcть воздуха, измеренная на высоте 2 м над землей.
Te - Эффективная температура - температура, которую ощущает одетый по сезону человек в тени. Характеристика душности погоды. При расчете учитывается влияние влажности воздуха и скорости ветра на теплоощущения человека.
Tes - Эффективная температура на солнце - температура, которую ощущает человек, с поправкой на солнечный нагрев. Характеристика знойности погоды. Зависит от высоты солнца над горизонтом, облачности и скорости ветра. Ночью, в пасмурную погоду, а также при ветре 12 м/с и более поправка равна нулю.
P - Атмосферное давление - приведенное к уровню моря атмосферное давление.
Po - Атмосферное давление - измеренное на уровне метеостанции атмосферное давление.
Tmin - Минимальная температура - минимум температуры воздуха на высоте 2 м над землей.
Tmax - Максимальная температура - максимум температуры воздуха на высоте 2 м над землей.
R - Количество осадков - Количество выпавших осадков за период времени, мм. При наведении курсора мыши на число - период времени, за который выпало указанное количество осадков.
R24 - Количество осадков - Количество выпавших осадков за 24 часа, мм.
S - Снежный покров - Высота снежного покрова, см. При наведении курсора мыши на число - состояние снежного покрова и степень покрытия местности в баллах.